Time,TemperatureF,DewpointF,PressureIn,WindDirection,WindDirectionDegrees,WindSpeedMPH,WindSpeedGustMPH,Humidity,HourlyPrecipIn,Conditions,Clouds,dailyrainin,SoftwareType,DateUTC
2013-08-06 00:01:00,71.8,71.2,29.68,South,180,0.0,-999.0,98,-99.99,,,0.00,Acu-Link.com,2013-08-06 05:01:00,
2013-08-06 00:16:00,71.6,71.0,29.68,South,180,0.0,-999.0,98,-99.99,,,0.00,Acu-Link.com,2013-08-06 05:16:00,
2013-08-06 00:31:00,71.4,70.8,29.68,South,180,0.0,-999.0,98,-99.99,,,0.00,Acu-Link.com,2013-08-06 05:31:00,
2013-08-06 00:46:00,71.4,70.8,29.68,WNW,292,0.0,-999.0,98,-99.99,,,0.00,Acu-Link.com,2013-08-06 05:46:00,
2013-08-06 01:02:00,71.4,70.8,29.67,SE,135,0.0,-999.0,98,-99.99,,,0.00,Acu-Link.com,2013-08-06 06:02:00,
2013-08-06 01:17:00,71.2,70.6,29.66,North,0,0.0,-999.0,98,-99.99,,,0.00,Acu-Link.com,2013-08-06 06:17:00,
2013-08-06 01:32:00,71.1,70.5,29.65,North,0,0.0,-999.0,98,-99.99,,,0.00,Acu-Link.com,2013-08-06 06:32:00,
2013-08-06 01:47:00,70.7,70.1,29.66,North,0,0.0,-999.0,98,-99.99,,,0.00,Acu-Link.com,2013-08-06 06:47:00,
2013-08-06 02:02:00,70.3,69.7,29.66,North,0,0.0,-999.0,98,-99.99,,,0.00,Acu-Link.com,2013-08-06 07:02:00,
2013-08-06 02:17:00,70.3,69.7,29.66,North,0,0.0,-999.0,98,-99.99,,,0.00,Acu-Link.com,2013-08-06 07:17:00,
2013-08-06 02:32:00,70.5,69.9,29.65,North,0,0.0,-999.0,98,-99.99,,,0.00,Acu-Link.com,2013-08-06 07:32:00,
2013-08-06 02:47:00,70.5,69.9,29.66,North,0,0.0,-999.0,98,-99.99,,,0.00,Acu-Link.com,2013-08-06 07:47:00,
2013-08-06 03:02:00,70.9,70.3,29.66,North,0,0.0,-999.0,98,-99.99,,,0.00,Acu-Link.com,2013-08-06 08:02:00,
2013-08-06 03:18:00,70.7,70.1,29.66,North,0,0.0,-999.0,98,-99.99,,,0.00,Acu-Link.com,2013-08-06 08:18:00,
2013-08-06 03:33:00,70.7,70.1,29.66,North,0,0.0,-999.0,98,-99.99,,,0.00,Acu-Link.com,2013-08-06 08:33:00,
2013-08-06 03:48:00,70.9,70.3,29.66,North,0,0.0,-999.0,98,-99.99,,,0.00,Acu-Link.com,2013-08-06 08:48:00,
2013-08-06 04:04:00,70.9,70.3,29.67,North,0,0.0,-999.0,98,-99.99,,,0.00,Acu-Link.com,2013-08-06 09:04:00,
2013-08-06 04:19:00,70.9,70.3,29.66,North,0,0.0,-999.0,98,-99.99,,,0.00,Acu-Link.com,2013-08-06 09:19:00,
2013-08-06 04:34:00,70.7,70.1,29.66,North,0,0.0,-999.0,98,-99.99,,,0.00,Acu-Link.com,2013-08-06 09:34:00,
2013-08-06 04:49:00,70.5,69.9,29.66,North,0,0.0,-999.0,98,-99.99,,,0.00,Acu-Link.com,2013-08-06 09:49:00,
2013-08-06 05:04:00,70.2,69.6,29.67,North,0,0.0,-999.0,98,-99.99,,,0.00,Acu-Link.com,2013-08-06 10:04:00,
2013-08-06 05:19:00,70.2,69.6,29.67,North,0,0.0,-999.0,98,-99.99,,,0.00,Acu-Link.com,2013-08-06 10:19:00,
2013-08-06 05:34:00,70.0,69.4,29.67,North,0,0.0,-999.0,98,-99.99,,,0.00,Acu-Link.com,2013-08-06 10:34:00,
2013-08-06 05:50:00,69.8,69.2,29.68,North,0,0.0,-999.0,98,-99.99,,,0.00,Acu-Link.com,2013-08-06 10:50:00,
2013-08-06 06:05:00,69.6,69.0,29.68,North,0,0.0,-999.0,98,-99.99,,,0.00,Acu-Link.com,2013-08-06 11:05:00,
2013-08-06 06:20:00,69.6,69.0,29.69,North,0,0.0,-999.0,98,-99.99,,,0.00,Acu-Link.com,2013-08-06 11:20:00,
2013-08-06 06:35:00,70.0,69.4,29.69,North,0,0.0,-999.0,98,-99.99,,,0.00,Acu-Link.com,2013-08-06 11:35:00,
2013-08-06 06:50:00,70.3,69.7,29.69,North,0,0.0,-999.0,98,-99.99,,,0.00,Acu-Link.com,2013-08-06 11:50:00,
2013-08-06 07:05:00,71.2,70.6,29.70,ESE,112,0.0,-999.0,98,-99.99,,,0.00,Acu-Link.com,2013-08-06 12:05:00,
2013-08-06 07:20:00,71.8,71.2,29.70,SSW,202,0.0,-999.0,98,-99.99,,,0.00,Acu-Link.com,2013-08-06 12:20:00,
2013-08-06 07:35:00,72.9,72.3,29.70,NE,45,0.0,-999.0,98,-99.99,,,0.00,Acu-Link.com,2013-08-06 12:35:00,
2013-08-06 07:50:00,73.6,73.0,29.70,East,90,1.7,-999.0,98,-99.99,,,0.00,Acu-Link.com,2013-08-06 12:50:00,
2013-08-06 08:06:00,75.6,75.0,29.71,SSE,157,0.0,-999.0,98,-99.99,,,0.00,Acu-Link.com,2013-08-06 13:06:00,
2013-08-06 08:21:00,75.9,75.3,29.72,West,270,0.0,-999.0,98,-99.99,,,0.00,Acu-Link.com,2013-08-06 13:21:00,
2013-08-06 08:36:00,76.3,75.7,29.72,West,270,0.0,-999.0,98,-99.99,,,0.00,Acu-Link.com,2013-08-06 13:36:00,
2013-08-06 08:51:00,75.7,75.1,29.72,WNW,292,0.0,-999.0,98,-99.99,,,0.00,Acu-Link.com,2013-08-06 13:51:00,
2013-08-06 09:06:00,76.1,75.5,29.72,West,270,1.7,-999.0,98,-99.99,,,0.00,Acu-Link.com,2013-08-06 14:06:00,
2013-08-06 09:21:00,76.1,75.5,29.73,West,270,0.0,-999.0,98,-99.99,,,0.00,Acu-Link.com,2013-08-06 14:21:00,
2013-08-06 09:36:00,75.9,75.3,29.73,SSE,157,0.0,-999.0,98,-99.99,,,0.00,Acu-Link.com,2013-08-06 14:36:00,
2013-08-06 09:51:00,76.1,75.5,29.73,WSW,247,0.0,-999.0,98,-99.99,,,0.00,Acu-Link.com,2013-08-06 14:51:00,
2013-08-06 10:09:00,76.1,75.5,29.73,East,90,1.7,-999.0,98,-99.99,,,0.01,Acu-Link.com,2013-08-06 15:09:00,
2013-08-06 10:24:00,74.8,74.2,29.73,NNE,22,1.1,-999.0,98,-99.99,,,0.01,Acu-Link.com,2013-08-06 15:24:00,
2013-08-06 10:39:00,74.5,73.9,29.73,NNE,22,0.0,-999.0,98,-99.99,,,0.01,Acu-Link.com,2013-08-06 15:39:00,
2013-08-06 10:54:00,73.9,73.3,29.73,NE,45,0.0,-999.0,98,-99.99,,,0.01,Acu-Link.com,2013-08-06 15:54:00,
2013-08-06 11:12:00,73.9,73.3,29.74,NNE,22,0.0,-999.0,98,-99.99,,,0.02,Acu-Link.com,2013-08-06 16:12:00,
2013-08-06 12:39:00,74.1,73.5,29.72,ESE,112,2.7,-999.0,98,-99.99,,,0.11,Acu-Link.com,2013-08-06 17:39:00,
2013-08-06 12:57:00,74.8,74.2,29.71,SE,135,2.7,-999.0,98,-99.99,,,0.14,Acu-Link.com,2013-08-06 17:57:00,
2013-08-06 13:12:00,74.8,74.2,29.70,East,90,0.0,-999.0,98,-99.99,,,0.14,Acu-Link.com,2013-08-06 18:12:00,
2013-08-06 13:28:00,76.3,75.7,29.70,NE,45,0.0,-999.0,98,-99.99,,,0.15,Acu-Link.com,2013-08-06 18:28:00,
2013-08-06 13:43:00,75.9,75.3,29.70,East,90,1.7,-999.0,98,-99.99,,,0.15,Acu-Link.com,2013-08-06 18:43:00,
2013-08-06 13:58:00,77.4,76.8,29.70,North,0,0.0,-999.0,98,-99.99,,,0.15,Acu-Link.com,2013-08-06 18:58:00,
2013-08-06 14:13:00,77.7,77.1,29.69,SSE,157,2.7,-999.0,98,-99.99,,,0.15,Acu-Link.com,2013-08-06 19:13:00,
2013-08-06 14:28:00,80.6,80.0,29.68,North,0,1.7,-999.0,98,-99.99,,,0.15,Acu-Link.com,2013-08-06 19:28:00,
2013-08-06 14:43:00,82.0,81.4,29.67,East,90,3.7,-999.0,98,-99.99,,,0.15,Acu-Link.com,2013-08-06 19:43:00,
2013-08-06 14:58:00,83.3,82.7,29.67,East,90,2.7,-999.0,98,-99.99,,,0.15,Acu-Link.com,2013-08-06 19:58:00,
2013-08-06 15:14:00,82.6,82.0,29.67,NNW,337,1.7,-999.0,98,-99.99,,,0.15,Acu-Link.com,2013-08-06 20:14:00,
2013-08-06 15:29:00,83.5,82.9,29.66,SSE,157,3.2,-999.0,98,-99.99,,,0.15,Acu-Link.com,2013-08-06 20:29:00,
2013-08-06 15:44:00,82.2,81.6,29.66,ESE,112,0.0,-999.0,98,-99.99,,,0.15,Acu-Link.com,2013-08-06 20:44:00,
2013-08-06 15:59:00,82.4,81.8,29.67,NNW,337,0.0,-999.0,98,-99.99,,,0.15,Acu-Link.com,2013-08-06 20:59:00,
2013-08-06 16:14:00,85.6,85.0,29.67,ESE,112,2.2,-999.0,98,-99.99,,,0.15,Acu-Link.com,2013-08-06 21:14:00,
2013-08-06 16:29:00,84.6,84.0,29.67,ESE,112,1.7,-999.0,98,-99.99,,,0.15,Acu-Link.com,2013-08-06 21:29:00,
2013-08-06 16:44:00,84.7,84.1,29.67,NNE,22,0.0,-999.0,98,-99.99,,,0.15,Acu-Link.com,2013-08-06 21:44:00,
2013-08-06 16:59:00,82.2,81.6,29.68,WNW,292,1.7,-999.0,98,-99.99,,,0.15,Acu-Link.com,2013-08-06 21:59:00,
2013-08-06 17:14:00,82.2,81.6,29.67,West,270,0.0,-999.0,98,-99.99,,,0.15,Acu-Link.com,2013-08-06 22:14:00,
2013-08-06 17:30:00,81.9,81.3,29.69,NW,315,0.0,-999.0,98,-99.99,,,0.15,Acu-Link.com,2013-08-06 22:30:00,
2013-08-06 17:45:00,81.5,80.9,29.68,ESE,112,0.0,-999.0,98,-99.99,,,0.15,Acu-Link.com,2013-08-06 22:45:00,
2013-08-06 18:00:00,80.6,80.0,29.68,SW,225,0.0,-999.0,98,-99.99,,,0.15,Acu-Link.com,2013-08-06 23:00:00,
2013-08-06 18:15:00,80.4,79.8,29.68,SW,225,0.0,-999.0,98,-99.99,,,0.15,Acu-Link.com,2013-08-06 23:15:00,
2013-08-06 18:30:00,80.2,79.6,29.68,ESE,112,0.0,-999.0,98,-99.99,,,0.15,Acu-Link.com,2013-08-06 23:30:00,
2013-08-06 18:45:00,79.0,78.4,29.68,West,270,0.0,-999.0,98,-99.99,,,0.15,Acu-Link.com,2013-08-06 23:45:00,
2013-08-06 19:00:00,78.6,78.0,29.67,West,270,0.0,-999.0,98,-99.99,,,0.15,Acu-Link.com,2013-08-07 00:00:00,
2013-08-06 19:15:00,78.4,77.8,29.68,ESE,112,0.0,-999.0,98,-99.99,,,0.15,Acu-Link.com,2013-08-07 00:15:00,
2013-08-06 19:30:00,77.7,77.1,29.67,NW,315,0.0,-999.0,98,-99.99,,,0.15,Acu-Link.com,2013-08-07 00:30:00,
2013-08-06 19:45:00,77.2,76.6,29.68,SSW,202,0.0,-999.0,98,-99.99,,,0.15,Acu-Link.com,2013-08-07 00:45:00,
2013-08-06 20:01:00,76.6,76.0,29.68,SSW,202,0.0,-999.0,98,-99.99,,,0.15,Acu-Link.com,2013-08-07 01:01:00,
2013-08-06 20:16:00,76.1,75.5,29.69,NW,315,0.0,-999.0,98,-99.99,,,0.15,Acu-Link.com,2013-08-07 01:16:00,
2013-08-06 20:31:00,75.9,75.3,29.68,East,90,0.0,-999.0,98,-99.99,,,0.15,Acu-Link.com,2013-08-07 01:31:00,
2013-08-06 20:46:00,75.7,75.1,29.69,SSW,202,0.0,-999.0,98,-99.99,,,0.15,Acu-Link.com,2013-08-07 01:46:00,
2013-08-06 21:01:00,75.7,75.1,29.69,ESE,112,0.0,-999.0,98,-99.99,,,0.15,Acu-Link.com,2013-08-07 02:01:00,
2013-08-06 21:16:00,75.6,75.0,29.69,SSE,157,0.0,-999.0,98,-99.99,,,0.15,Acu-Link.com,2013-08-07 02:16:00,
2013-08-06 21:31:00,75.4,74.8,29.69,SSE,157,0.0,-999.0,98,-99.99,,,0.15,Acu-Link.com,2013-08-07 02:31:00,
2013-08-06 21:46:00,75.0,74.4,29.69,West,270,0.0,-999.0,98,-99.99,,,0.15,Acu-Link.com,2013-08-07 02:46:00,
2013-08-06 22:01:00,75.0,74.4,29.68,South,180,0.0,-999.0,98,-99.99,,,0.15,Acu-Link.com,2013-08-07 03:01:00,
2013-08-06 22:17:00,75.0,74.4,29.67,SSW,202,0.0,-999.0,98,-99.99,,,0.15,Acu-Link.com,2013-08-07 03:17:00,
2013-08-06 22:32:00,75.9,75.3,29.67,WNW,292,0.0,-999.0,98,-99.99,,,0.15,Acu-Link.com,2013-08-07 03:32:00,
2013-08-06 22:47:00,75.6,75.0,29.68,SE,135,0.0,-999.0,98,-99.99,,,0.15,Acu-Link.com,2013-08-07 03:47:00,
2013-08-06 23:02:00,75.6,75.0,29.68,ESE,112,0.0,-999.0,98,-99.99,,,0.15,Acu-Link.com,2013-08-07 04:02:00,
2013-08-06 23:17:00,75.7,75.1,29.67,SSE,157,0.0,-999.0,98,-99.99,,,0.15,Acu-Link.com,2013-08-07 04:17:00,
2013-08-06 23:32:00,75.6,75.0,29.67,West,270,1.7,-999.0,98,-99.99,,,0.15,Acu-Link.com,2013-08-07 04:32:00,
2013-08-06 23:47:00,75.2,74.6,29.68,West,270,0.0,-999.0,98,-99.99,,,0.15,Acu-Link.com,2013-08-07 04:47:00,